This is the latest recevied weather packets stored in our database for station/object KB2SKP. If no packets are shown the sender has not sent any weather packets the latest 10 day(s).
| Time | Temp. | Humidity | Pressure | Rain* | Wind** | Luminosity | Snow |
|---|---|---|---|---|---|---|---|
| 1777857849 | 8.33° C | 72% | 1012.2 hPa | 0 mm | - | 0 W/m² | - |
| 1777857546 | 8.33° C | 71% | 1012.1 hPa | 0 mm | - | 0 W/m² | - |
| 1777857243 | 8.33° C | 70% | 1012 hPa | 0 mm | - | 0 W/m² | - |
| 1777856939 | 8.33° C | 69% | 1012.1 hPa | 0 mm | - | 0 W/m² | - |
| 1777856634 | 8.89° C | 68% | 1012 hPa | 0 mm | - | 0 W/m² | - |
| 1777856325 | 8.89° C | 68% | 1012.1 hPa | 0 mm | - | 0 W/m² | - |
| 1777856022 | 8.89° C | 66% | 1012.1 hPa | 0 mm | - | 0 W/m² | - |
| 1777855720 | 9.44° C | 65% | 1011.9 hPa | 0 mm | - | 0 W/m² | - |
| 1777855417 | 10° C | 64% | 1012 hPa | 0 mm | - | 0 W/m² | - |
| 1777855114 | 10° C | 62% | 1011.8 hPa | 0 mm | - | 0 W/m² | - |
| 1777854811 | 10° C | 62% | 1011.7 hPa | 0 mm | - | 0 W/m² | - |
| 1777854507 | 10.56° C | 59% | 1011.7 hPa | 0 mm | - | 0 W/m² | - |
| 1777854204 | 10.56° C | 58% | 1011.7 hPa | 0 mm | - | 0 W/m² | - |
| 1777853902 | 10.56° C | 57% | 1011.7 hPa | 0 mm | - | 0 W/m² | - |
| 1777853599 | 11.11° C | 55% | 1011.7 hPa | 0 mm | - | 0 W/m² | - |
| 1777853296 | 11.67° C | 54% | 1011.6 hPa | 0 mm | - | 0 W/m² | - |
| 1777852993 | 11.67° C | 53% | 1011.7 hPa | 0 mm | - | 1 W/m² | - |
| 1777852690 | 12.22° C | 54% | 1011.5 hPa | 0 mm | - | 1 W/m² | - |
| 1777852388 | 12.22° C | 52% | 1011.4 hPa | 0 mm | - | 2 W/m² | - |
| 1777852085 | 12.78° C | 51% | 1011.4 hPa | 0 mm | - | 3 W/m² | - |
| 1777851783 | 12.78° C | 50% | 1011.2 hPa | 0 mm | - | 4 W/m² | - |
| 1777851480 | 13.33° C | 49% | 1011.3 hPa | 0 mm | - | 5 W/m² | - |
| 1777851176 | 13.33° C | 47% | 1011.1 hPa | 0 mm | - | 6 W/m² | - |
| 1777850873 | 13.89° C | 47% | 1011.2 hPa | 0 mm | - | 8 W/m² | - |
| 1777850570 | 14.44° C | 42% | 1011.1 hPa | 0 mm | - | 9 W/m² | - |
* Rain latest hour (hover to see other rain measurements)
** Current wind speed in m/s (hover to see current wind gust speed)